[[{"header":{"parameterUnit":"m.s-1","parameterCategory":1,"la1":30.2991,"la2":30.254,"lo1":-89.0895,"lo2":-89.0444,"dy":0.0017,"dx":0.0017,"nx":28,"ny":28,"refTime":"2024-12-12T09:00:00:Z","depth":0,"parameterNumber":2,"parameterNumberName":"U-component_of_WINDS"},"data":[0,0,0,0,0,0,0,0,0,0,0,0,0,0,0,0,0,0,0,0,0,0,0,0,0,0,0,0,0,0,0,0,0,0,0,0,0,0,0,0,0,0,0,0,0,0,0,0,0,0,0,0,0,0,0,0,0,0,-5.3366,-5.3367,0,-5.3469,-5.347,-5.3472,-5.3317,-5.3312,-5.3306,-5.3301,-5.3412,-5.3419,-5.3427,0,0,0,0,0,0,0,0,0,0,0,0,0,-5.3039,-5.3046,-5.3366,-5.3367,-5.3368,-5.3469,-5.347,-5.3472,-5.3318,-5.3311,-5.3305,-5.3299,-5.3409,-5.3418,-5.3428,0,0,0,0,0,0,0,0,0,0,0,0,0,-5.3166,-5.3048,-5.3366,-5.3304,-5.3299,-5.3469,-5.347,-5.3472,-5.3319,-5.3311,-5.3303,-5.3295,-5.3406,-5.3417,-5.3429,-5.3666,0,0,-5.3466,-5.3471,0,0,0,0,0,0,0,0,-5.3159,-5.3178,-5.3312,-5.3308,-5.3303,-5.3372,-5.3395,-5.3537,-5.3321,-5.3312,-5.3301,-5.3292,-5.3405,-5.3417,-5.3454,-5.3671,-5.3676,-5.3467,-5.3474,-5.3479,-5.3483,0,0,0,0,0,0,0,-5.315,-5.3172,-5.3407,-5.3314,-5.3309,-5.3272,-5.3281,-5.3422,-5.3403,-5.3312,-5.3301,-5.3315,-5.3401,-5.3443,-5.3455,-5.3677,-5.3467,-5.3477,-5.3485,-5.3489,-5.4093,-5.4101,0,0,0,0,0,0,-5.3148,-5.3166,-5.3403,-5.341,-5.3209,-5.3284,-5.3294,-5.3358,-5.3401,-5.34,-5.3322,-5.3308,-5.3426,-5.3442,-5.3459,-5.3738,-5.3479,-5.349,-5.3497,-5.4084,-5.4095,-5.4104,0,0,0,0,0,0,-5.3142,-5.3171,-5.3399,-5.3285,-5.3311,-5.3299,-5.3371,-5.3365,-5.3406,-5.3408,-5.3405,-5.3368,-5.3421,-5.3442,-5.3615,-5.374,-5.3496,-5.3507,-5.4074,-5.4087,-5.41,-5.43,0,0,0,0,0,0,-5.3133,-5.3169,-5.3259,-5.3288,-5.3318,-5.3554,-5.3379,-5.3372,-5.3426,-5.3408,-5.345,-5.3449,-5.3416,-5.3598,-5.3627,-5.3752,-5.3516,-5.4062,-5.408,-5.4095,-5.4282,-5.4319,-5.435,0,0,0,0,0,-5.3122,-5.3312,-5.3264,-5.3293,-5.3429,-5.3561,-5.3578,-5.3534,-5.3437,-5.3527,-5.3528,-5.3448,-5.3721,-5.3617,-5.3648,-5.3779,-5.4054,-5.4075,-5.4094,-5.4267,-5.4311,-5.4349,0,0,0,0,0,0,-5.3299,-5.3315,-5.3262,-5.3467,-5.3514,-5.3535,-5.3647,-5.3583,-5.366,-5.364,-5.3583,-5.3594,-5.378,-5.3796,-5.368,-5.401,-5.3872,-5.3899,-5.3993,-5.4035,-5.4068,-5.4061,-5.3526,0,0,0,0,0,-5.3362,-5.3467,-5.3475,-5.3655,-5.3681,-5.3661,-5.3716,-5.3678,-5.3725,-5.3745,-5.3759,-5.3809,-5.3905,-5.3971,-5.406,-5.4283,-5.4291,-5.4389,-5.4422,-5.445,-5.4475,-5.4594,-5.4638,-5.417,-5.417,-5.4169,0,0,-5.3493,-5.3514,-5.3584,-5.3691,-5.3723,-5.3834,-5.3678,-5.3802,-5.3884,-5.3764,-5.3928,-5.394,-5.3992,-5.4191,-5.428,-5.4211,-5.4605,-5.4475,-5.4497,-5.4507,-5.4619,-5.4663,-5.4703,-5.4183,-5.4181,-5.4179,0,0,-5.3789,-5.3815,-5.3968,-5.4003,-5.4052,-5.4037,-5.4074,-5.4105,-5.4108,-5.4271,-5.4183,-5.428,-5.4448,-5.4488,-5.4531,-5.4841,-5.477,-5.4872,-5.5048,-5.5165,-5.5202,-5.5235,-5.5346,-5.5387,-5.4896,-5.4896,-5.4897,0,-5.3946,-5.4108,-5.4055,-5.4185,-5.4235,-5.4129,-5.4284,-5.4321,-5.4398,-5.4435,-5.4356,-5.4565,-5.4592,-5.4799,-5.4875,-5.4913,-5.4954,-5.4867,-5.5201,-5.5233,-5.5263,-5.5368,-5.541,-5.4908,-5.4907,-5.4906,-5.4905,0,-5.43,-5.4414,-5.4531,-5.4606,-5.4669,-5.4812,-5.4781,-5.4851,-5.4808,-5.4801,-5.4969,-5.4997,-5.5091,-5.5137,-5.5096,-5.5339,-5.5294,-5.521,-5.507,-5.532,-5.5418,-5.5458,-5.4926,-5.4921,-5.4918,-5.4915,0,0,-5.4712,-5.4754,-5.4798,-5.4831,-5.4877,-5.4965,-5.5102,-5.5192,-5.5253,-5.531,-5.5424,-5.5568,-5.549,-5.5538,-5.5501,-5.5604,-5.5848,-5.5506,-5.5506,-5.5569,-5.6118,-5.6182,-5.623,-5.58,-5.5808,-5.5814,-5.6113,0,-5.5007,-5.5242,-5.5198,-5.5428,-5.5533,-5.5434,-5.5553,-5.5595,-5.5593,-5.5682,-5.5679,-5.5782,-5.567,-5.5699,-5.5796,-5.5798,-5.5958,-5.5775,-5.5908,-5.5913,-5.5899,-5.6281,-5.6349,-5.6631,-5.6151,-5.6158,-5.6163,0,-5.5383,-5.5451,-5.5692,-5.5721,-5.5763,-5.5871,-5.5949,-5.6036,-5.6082,-5.6072,-5.6126,-5.6069,-5.6207,-5.6064,-5.6254,-5.6131,-5.6182,-5.6191,-5.6201,-5.6213,-5.6054,-5.6304,-5.6719,-5.6762,-5.6222,-5.6218,-5.6213,0,-5.566,-5.5813,-5.5976,-5.6007,-5.6045,-5.6123,-5.6143,-5.618,-5.6237,-5.6305,-5.6341,-5.6426,-5.6473,-5.654,-5.6508,-5.6407,-5.6704,-5.6558,-5.6701,-5.6703,-5.6769,-5.6766,-5.72,-5.6802,-5.6801,-5.68,-5.6799,0,-5.5994,-5.6146,-5.6101,-5.6202,-5.6368,-5.6316,-5.6483,-5.6491,-5.6525,-5.6626,-5.6545,-5.6642,-5.6593,-5.6687,-5.6663,-5.6824,-5.6846,-5.6843,-5.6835,-5.6851,-5.6852,-5.6885,-5.6865,-5.6811,-5.6809,-5.6807,-5.6805,0,-5.6333,-5.6308,-5.648,-5.6501,-5.651,-5.6632,-5.665,-5.6745,-5.6735,-5.6865,-5.6892,-5.6878,-5.6984,-5.6958,-5.7075,-5.7058,-5.7261,-5.7228,-5.7246,-5.7238,-5.7383,-5.737,-5.7855,-5.7916,-5.7477,-5.7481,-5.7485,0,-5.6548,-5.6662,-5.6695,-5.6756,-5.6781,-5.6881,-5.6938,-5.6891,-5.6954,-5.7014,-5.7102,-5.72,-5.7277,-5.7451,-5.7452,-5.7541,-5.751,-5.7674,-5.7523,-5.7535,-5.7513,-5.7507,-5.7519,-5.7704,-5.7709,-5.7713,-5.7717,0,-5.6934,-5.6916,-5.7,-5.7081,-5.715,-5.7212,-5.7265,-5.7321,-5.7278,-5.7352,-5.7459,-5.7518,-5.7636,-5.7736,-5.7817,-5.7838,-5.7772,-5.7764,-5.7802,-5.782,-5.7825,-5.7825,-5.7328,-5.7753,-5.775,-5.7747,-5.7745,-5.7743,-5.7218,-5.7314,-5.7352,-5.7448,-5.7484,-5.7536,-5.7625,-5.7626,-5.7714,-5.7805,-5.7772,-5.7895,-5.7938,-5.804,-5.8071,-5.8166,-5.8105,-5.816,-5.8174,-5.8188,-5.8206,-5.7809,-5.8181,-5.818,-5.8179,-5.8178,-5.8177,0,-5.7599,-5.7618,-5.7708,-5.7785,-5.7861,-5.7789,-5.7845,-5.7914,-5.8022,-5.8067,-5.8143,-5.8266,-5.8362,-5.837,-5.846,-5.8535,-5.8507,-5.8561,-5.8555,-5.8561,-5.8256,-5.8215,-5.8582,-5.8582,-5.8582,-5.8582,-5.8582,-5.8582,-5.7807,-5.7966,-5.7953,-5.8129,-5.8147,-5.8265,-5.8303,-5.8351,-5.8386,-5.8527,-5.8605,-5.8609,-5.8639,-5.8731,-5.8816,-5.8816,-5.8853,-5.8919,-5.8908,-5.8623,-5.8583,-5.8544,-5.8505,-5.8927,-5.8928,-5.9205,-5.9207,-5.9209]},{"header":{"parameterUnit":"m.s-1","parameterCategory":1,"la1":30.2991,"la2":30.254,"lo1":-89.0895,"lo2":-89.0444,"dy":0.0017,"dx":0.0017,"nx":28,"ny":28,"refTime":"2024-12-12T09:00:00:Z","depth":0,"parameterNumber":3,"parameterNumberName":"V-component_of_WINDS"},"data":[0,0,0,0,0,0,0,0,0,0,0,0,0,0,0,0,0,0,0,0,0,0,0,0,0,0,0,0,0,0,0,0,0,0,0,0,0,0,0,0,0,0,0,0,0,0,0,0,0,0,0,0,0,0,0,0,0,0,-3.0617,-3.0617,0,-3.0604,-3.0604,-3.0604,-3.0549,-3.0548,-3.0546,-3.0545,-3.0532,-3.0533,-3.0533,0,0,0,0,0,0,0,0,0,0,0,0,0,-3.0593,-3.0593,-3.0617,-3.0617,-3.0617,-3.0604,-3.0604,-3.0604,-3.0549,-3.0547,-3.0546,-3.0544,-3.0531,-3.0532,-3.0533,0,0,0,0,0,0,0,0,0,0,0,0,0,-3.0594,-3.0594,-3.0617,-3.0588,-3.0585,-3.0604,-3.0604,-3.0604,-3.0549,-3.0547,-3.0545,-3.0544,-3.0531,-3.0532,-3.0534,-3.058,0,0,-3.0537,-3.0538,0,0,0,0,0,0,0,0,-3.0594,-3.0595,-3.0592,-3.059,-3.0587,-3.0576,-3.059,-3.0596,-3.055,-3.0563,-3.0545,-3.0543,-3.0548,-3.0548,-3.055,-3.0579,-3.0579,-3.0538,-3.0538,-3.0539,-3.0539,0,0,0,0,0,0,0,-3.0594,-3.0595,-3.0612,-3.0592,-3.0589,-3.0575,-3.0573,-3.0591,-3.0566,-3.0562,-3.0558,-3.0557,-3.0546,-3.0549,-3.0549,-3.0578,-3.0538,-3.0539,-3.0539,-3.054,-3.0642,-3.0644,0,0,0,0,0,0,-3.0598,-3.0595,-3.0612,-3.0612,-3.0586,-3.0577,-3.0575,-3.0582,-3.0566,-3.0562,-3.0559,-3.0554,-3.0547,-3.0547,-3.0548,-3.0599,-3.0539,-3.054,-3.0541,-3.064,-3.0643,-3.0645,0,0,0,0,0,0,-3.0598,-3.06,-3.0613,-3.0602,-3.0603,-3.0579,-3.0588,-3.0582,-3.0585,-3.0564,-3.0559,-3.0566,-3.0546,-3.0546,-3.0572,-3.0598,-3.0541,-3.0542,-3.0638,-3.0641,-3.0644,-3.0703,0,0,0,0,0,0,-3.0597,-3.06,-3.0618,-3.0603,-3.0604,-3.0638,-3.0589,-3.0583,-3.0587,-3.0581,-3.0569,-3.0565,-3.0544,-3.057,-3.0573,-3.0599,-3.0543,-3.0636,-3.0639,-3.0643,-3.0699,-3.0708,-3.0715,0,0,0,0,0,-3.0597,-3.0636,-3.062,-3.0622,-3.0626,-3.0639,-3.0639,-3.0615,-3.0589,-3.0606,-3.0593,-3.0566,-3.0595,-3.0573,-3.0576,-3.0603,-3.0634,-3.0638,-3.0643,-3.0695,-3.0706,-3.0715,0,0,0,0,0,0,-3.0656,-3.0634,-3.0615,-3.0651,-3.0647,-3.063,-3.0651,-3.0628,-3.0631,-3.0626,-3.0595,-3.0592,-3.0622,-3.0615,-3.0591,-3.0645,-3.061,-3.0615,-3.0648,-3.0659,-3.0667,-3.0668,-3.0544,0,0,0,0,0,-3.0673,-3.0686,-3.0666,-3.0699,-3.0698,-3.0675,-3.068,-3.0661,-3.0656,-3.0654,-3.0642,-3.0638,-3.0646,-3.0652,-3.0659,-3.0698,-3.0693,-3.0717,-3.0725,-3.0732,-3.0737,-3.0754,-3.0764,-3.0659,-3.0659,-3.0659,0,0,-3.0709,-3.0698,-3.0708,-3.0711,-3.0706,-3.0719,-3.0674,-3.0691,-3.07,-3.0657,-3.0679,-3.067,-3.0664,-3.0695,-3.0709,-3.069,-3.0765,-3.0738,-3.0744,-3.0744,-3.076,-3.077,-3.0779,-3.0662,-3.0662,-3.0661,0,0,-3.078,-3.0774,-3.08,-3.0795,-3.0788,-3.0772,-3.0778,-3.0764,-3.0756,-3.0778,-3.0745,-3.0755,-3.077,-3.0766,-3.0766,-3.0833,-3.0808,-3.0836,-3.088,-3.0897,-3.0906,-3.0913,-3.0935,-3.0943,-3.0841,-3.0841,-3.0841,0,-3.0825,-3.0844,-3.0817,-3.0834,-3.0836,-3.0796,-3.0822,-3.0819,-3.0814,-3.0815,-3.0795,-3.0811,-3.0804,-3.0833,-3.0849,-3.0851,-3.0856,-3.0837,-3.0907,-3.0914,-3.092,-3.0941,-3.0949,-3.0845,-3.0844,-3.0844,-3.0844,0,-3.0899,-3.0912,-3.0934,-3.0929,-3.0933,-3.0955,-3.093,-3.0937,-3.0917,-3.0903,-3.0925,-3.0914,-3.0917,-3.0923,-3.0904,-3.0948,-3.0937,-3.0912,-3.0876,-3.0934,-3.0952,-3.096,-3.0849,-3.0848,-3.0847,-3.0846,0,0,-3.1008,-3.0986,-3.0994,-3.099,-3.0978,-3.0988,-3.1007,-3.1009,-3.1014,-3.1012,-3.1026,-3.1039,-3.1015,-3.1015,-3.0995,-3.1011,-3.1062,-3.0984,-3.0983,-3.0997,-3.1108,-3.1126,-3.1136,-3.1046,-3.1047,-3.1048,-3.1108,0,-3.1074,-3.1105,-3.108,-3.1116,-3.1127,-3.1089,-3.1105,-3.1099,-3.1085,-3.1092,-3.1078,-3.1086,-3.1055,-3.1054,-3.1068,-3.1053,-3.1084,-3.1049,-3.1057,-3.1058,-3.1059,-3.1146,-3.1165,-3.1222,-3.1115,-3.1117,-3.1118,0,-3.1156,-3.1156,-3.1193,-3.1175,-3.1179,-3.1194,-3.1193,-3.12,-3.1192,-3.1181,-3.118,-3.1155,-3.1171,-3.1136,-3.1157,-3.1134,-3.1136,-3.1129,-3.113,-3.1129,-3.1091,-3.1145,-3.124,-3.1248,-3.1129,-3.1128,-3.1128,0,-3.123,-3.1239,-3.1261,-3.1259,-3.1241,-3.1252,-3.1244,-3.1234,-3.1236,-3.1234,-3.1235,-3.1236,-3.1236,-3.1237,-3.1213,-3.119,-3.1237,-3.12,-3.1227,-3.1227,-3.1238,-3.1237,-3.1332,-3.1242,-3.1241,-3.1241,-3.1241,0,-3.1306,-3.1329,-3.1293,-3.1307,-3.1331,-3.1301,-3.1326,-3.1315,-3.1306,-3.1315,-3.1283,-3.1293,-3.1261,-3.1268,-3.1249,-3.1268,-3.1269,-3.126,-3.1254,-3.1262,-3.1263,-3.1262,-3.1257,-3.1243,-3.1243,-3.1243,-3.1242,0,-3.1392,-3.1369,-3.139,-3.137,-3.1365,-3.1384,-3.1366,-3.1378,-3.1362,-3.1375,-3.1376,-3.1351,-3.1356,-3.1332,-3.1334,-3.1322,-3.135,-3.1338,-3.1353,-3.1348,-3.1376,-3.1373,-3.1473,-3.1483,-3.1387,-3.1388,-3.1389,0,-3.1441,-3.1458,-3.1439,-3.1443,-3.1437,-3.1445,-3.1446,-3.1417,-3.1419,-3.141,-3.1422,-3.1424,-3.1425,-3.1435,-3.1417,-3.1418,-3.1405,-3.144,-3.1405,-3.1411,-3.1403,-3.1402,-3.1403,-3.1447,-3.1448,-3.1449,-3.145,0,-3.1531,-3.1518,-3.1521,-3.152,-3.1522,-3.152,-3.1515,-3.152,-3.1489,-3.1493,-3.1498,-3.1498,-3.1499,-3.1502,-3.1498,-3.149,-3.1464,-3.1461,-3.1467,-3.1474,-3.1481,-3.1476,-3.1371,-3.1459,-3.1458,-3.1457,-3.1457,-3.1456,-3.1599,-3.1611,-3.1599,-3.1603,-3.1596,-3.1592,-3.1601,-3.1585,-3.1588,-3.1586,-3.1569,-3.1577,-3.1566,-3.1558,-3.1552,-3.1557,-3.1541,-3.155,-3.1552,-3.1554,-3.1558,-3.1481,-3.1557,-3.1556,-3.1556,-3.1556,-3.1556,0,-3.1685,-3.1675,-3.1679,-3.1673,-3.1675,-3.165,-3.1644,-3.1647,-3.1654,-3.1646,-3.1647,-3.1651,-3.1653,-3.1634,-3.1633,-3.1641,-3.1629,-3.1641,-3.164,-3.1638,-3.1574,-3.1568,-3.1651,-3.1651,-3.1651,-3.1651,-3.1651,-3.1651,-3.173,-3.1749,-3.1734,-3.1748,-3.1738,-3.1744,-3.1742,-3.1738,-3.1731,-3.1737,-3.1738,-3.1726,-3.1713,-3.171,-3.171,-3.1704,-3.1705,-3.1721,-3.1712,-3.1652,-3.1643,-3.1634,-3.1628,-3.1722,-3.1722,-3.1775,-3.1775,-3.1776]}]]